Flag for Congo Weather past 2 weeks in Brazzaville, Congo

Now
75 °F

Clear.


Feels Like: 75 °F
Forecast: 73 / 91 °F
Wind: 3 mph from West

Location: Brazzaville / Maya-Maya

Current Time: Apr 28, 2015 at 8:38:53 AM

Latest Report: Apr 28, 2015 at 8:00 AM


Visibility: 5 mi

Pressure: 29.98 "Hg

Humidity: 89%

Dew point: 72 °F

Location of BrazzavilleLocation

Historic Weather in Brazzaville — Graph

°F

Brazzaville temperature yesterday

Maximum temperature yesterday: 91 °F (at 2:00 PM)
Minimum temperature yesterday: 73 °F (at 2:00 AM)
Average temperature yesterday: 80 °F

Past Weeks' High & Low Weather Summary

 TemperatureHumidityPressure
High95 °F (Apr 23, 3:00 PM)100% (Apr 13, 11:49 PM)30.04 "Hg (Apr 13, 11:49 PM)
Low72 °F (Apr 21, 12:00 AM)44% (Apr 18, 4:00 PM)29.74 "Hg (Apr 23, 4:00 PM)
Average79 °F79%29.92 "Hg
* Reported Apr 13 7:00 AM — Apr 28 7:00 AM, Brazzaville, Weather by CustomWeather, © 2015

Note: Actual official high and low records may vary slightly from our data, if they occured in-between our weather recording intervals... More about our weather records

Advertising

Brazzaville weather history for previous 24 hours

 ConditionsComfort  
Time TempWeatherWind HumidityBarometerVisibility
7:00 AM
Tue, Apr 28
73 °FPassing clouds.3 mph94%29.95 "HgN/A
6:00 AM72 °FPassing clouds.2 mph94%29.92 "HgN/A
5:00 AM73 °FClear.2 mph89%29.89 "Hg5 mi
4:00 AM73 °FClear.No wind89%29.89 "Hg5 mi
3:00 AM73 °FClear.3 mph89%29.89 "Hg5 mi
2:00 AM75 °FPassing clouds.3 mph89%29.92 "Hg5 mi
1:00 AM75 °FPassing clouds.7 mph89%29.92 "Hg5 mi
12:00 AM77 °FThunderstorms. Passing clouds.2 mph83%29.92 "Hg5 mi
11:00 PM
Mon, Apr 27
77 °FThunderstorms. Passing clouds.6 mph83%29.92 "Hg5 mi
10:00 PM77 °FThunderstorms. Passing clouds.8 mph89%29.92 "Hg5 mi
9:00 PM81 °FThunderstorms. Passing clouds.No wind79%29.89 "Hg5 mi
8:00 PM79 °FThunderstorms. Passing clouds.2 mph84%29.89 "Hg5 mi
7:00 PM79 °FThunderstorms. Passing clouds.3 mph84%29.83 "Hg5 mi
6:00 PM84 °FThunderstorms. Passing clouds.6 mph62%29.83 "Hg5 mi
5:00 PM86 °FPassing clouds.8 mph59%29.80 "HgN/A
4:00 PM90 °FPassing clouds.9 mph59%29.80 "HgN/A
3:00 PM91 °FPassing clouds.6 mph52%29.80 "HgN/A
2:00 PM91 °FScattered clouds.3 mph56%29.83 "HgN/A
1:00 PM90 °FPassing clouds.5 mph55%29.86 "HgN/A
12:00 PM88 °FPassing clouds.3 mph59%29.89 "HgN/A
11:00 AM86 °FPassing clouds.5 mph62%29.92 "HgN/A
10:00 AM84 °FPassing clouds.2 mph58%29.95 "HgN/A
9:00 AM81 °FPassing clouds.5 mph66%29.98 "HgN/A
8:00 AM79 °FPassing clouds.3 mph74%29.98 "HgN/A
Weather by CustomWeather, © 2015

See weather overviewHow to use our weather pages